BAW38DB EIDW-EGLL

Flight info

Callsign BAW38DB
Flight time 1h 3m
Altitude 35000
Route PESIT2J PESIT DCT BAKUR DCT ECCIT DCT GUBJE DCT GISOK DCT TACQI DCT FONZU DCT ELRIP DCT OTMET OTMET1H
Aircraft A320/M-SDE3FGIJ1KRWXY/SB1

Departure

Time 2026-05-06 17:32
Airport Dublin Airport (EIDW)

Arrival

Time 2026-05-06 18:36
Airport London Heathrow Airport (EGLL)
Time Latitude Longitude Altitude Speed Heading
2026-05-06 16:53 53.42882 -6.24761 211 ft 0 kts 185°
2026-05-06 17:21 53.42885 -6.24761 211 ft 2 kts 185°
2026-05-06 17:21 53.42902 -6.24758 211 ft 2 kts 185°
2026-05-06 17:21 53.42920 -6.24756 216 ft 2 kts 217°
2026-05-06 17:22 53.42928 -6.24736 213 ft 0 kts 275°
2026-05-06 17:24 53.42928 -6.24740 211 ft 2 kts 273°
2026-05-06 17:25 53.42928 -6.24837 211 ft 13 kts 241°
2026-05-06 17:25 53.42856 -6.24979 211 ft 16 kts 227°
2026-05-06 17:25 53.42776 -6.25091 211 ft 16 kts 226°
2026-05-06 17:25 53.42694 -6.25232 211 ft 18 kts 225°
2026-05-06 17:26 53.42605 -6.25384 210 ft 20 kts 225°
2026-05-06 17:26 53.42513 -6.25542 211 ft 19 kts 227°
2026-05-06 17:26 53.42419 -6.25700 211 ft 20 kts 225°
2026-05-06 17:26 53.42324 -6.25865 211 ft 20 kts 225°
2026-05-06 17:27 53.42262 -6.26058 213 ft 20 kts 257°
2026-05-06 17:27 53.42267 -6.26301 214 ft 22 kts 275°
2026-05-06 17:27 53.42282 -6.26570 216 ft 24 kts 275°
2026-05-06 17:27 53.42296 -6.26845 211 ft 23 kts 276°
2026-05-06 17:28 53.42312 -6.27120 214 ft 24 kts 275°
2026-05-06 17:28 53.42328 -6.27403 211 ft 25 kts 275°
2026-05-06 17:28 53.42343 -6.27707 211 ft 26 kts 277°
2026-05-06 17:28 53.42360 -6.27996 211 ft 24 kts 275°
2026-05-06 17:29 53.42376 -6.28253 211 ft 22 kts 274°
2026-05-06 17:29 53.42390 -6.28514 211 ft 23 kts 275°
2026-05-06 17:29 53.42400 -6.28742 211 ft 20 kts 277°
2026-05-06 17:29 53.42412 -6.28969 214 ft 19 kts 266°
2026-05-06 17:30 53.42342 -6.29073 210 ft 13 kts 191°
2026-05-06 17:30 53.42250 -6.29035 213 ft 14 kts 122°
2026-05-06 17:30 53.42238 -6.28939 209 ft 0 kts 94°
2026-05-06 17:31 53.42237 -6.28913 213 ft 15 kts 94°
2026-05-06 17:31 53.42202 -6.28288 213 ft 88 kts 95°
2026-05-06 17:32 53.42128 -6.26937 213 ft 141 kts 96°
2026-05-06 17:32 53.42026 -6.25167 506 ft 160 kts 97°
2026-05-06 17:32 53.41897 -6.23237 1009 ft 173 kts 98°
2026-05-06 17:32 53.41781 -6.21174 1671 ft 178 kts 98°
2026-05-06 17:33 53.41679 -6.19134 2430 ft 175 kts 96°
2026-05-06 17:33 53.41569 -6.17012 2834 ft 193 kts 96°
2026-05-06 17:33 53.41440 -6.14638 3122 ft 217 kts 96°
2026-05-06 17:33 53.41294 -6.11970 3504 ft 242 kts 96°
2026-05-06 17:34 53.41130 -6.09035 4084 ft 262 kts 96°
2026-05-06 17:34 53.40957 -6.05951 4990 ft 269 kts 96°
2026-05-06 17:34 53.40547 -6.02881 5870 ft 274 kts 116°
2026-05-06 17:34 53.39418 -6.00315 6746 ft 276 kts 142°
2026-05-06 17:35 53.37746 -5.98771 7597 ft 277 kts 166°
2026-05-06 17:35 53.35842 -5.98528 8458 ft 277 kts 191°
2026-05-06 17:35 53.33965 -5.99302 9349 ft 279 kts 197°
2026-05-06 17:36 53.30085 -6.01105 10466 ft 309 kts 198°
2026-05-06 17:36 53.27949 -6.02107 10802 ft 327 kts 198°
2026-05-06 17:36 53.25741 -6.03196 11465 ft 333 kts 199°
2026-05-06 17:36 53.23510 -6.04334 12198 ft 337 kts 199°
2026-05-06 17:37 53.21291 -6.05481 12941 ft 340 kts 199°
2026-05-06 17:37 53.18986 -6.06459 13683 ft 345 kts 191°
2026-05-06 17:37 53.16579 -6.06913 14346 ft 350 kts 188°
2026-05-06 17:37 53.14149 -6.07328 14993 ft 353 kts 188°
2026-05-06 17:38 53.11680 -6.07487 15613 ft 359 kts 179°
2026-05-06 17:38 53.09189 -6.06848 16219 ft 366 kts 168°
2026-05-06 17:38 53.06722 -6.05708 16846 ft 370 kts 166°
2026-05-06 17:38 53.04232 -6.04559 17473 ft 373 kts 167°
2026-05-06 17:39 53.01720 -6.03412 18100 ft 377 kts 167°
2026-05-06 17:39 52.99179 -6.02259 18670 ft 380 kts 167°
2026-05-06 17:39 52.96615 -6.01098 19214 ft 384 kts 166°
2026-05-06 17:39 52.94024 -5.99923 19775 ft 388 kts 166°
2026-05-06 17:40 52.91411 -5.98741 20319 ft 391 kts 166°
2026-05-06 17:40 52.88773 -5.97546 20844 ft 395 kts 166°
2026-05-06 17:40 52.86110 -5.96335 21341 ft 399 kts 166°
2026-05-06 17:40 52.83422 -5.95118 21849 ft 402 kts 166°
2026-05-06 17:41 52.80712 -5.93896 22350 ft 405 kts 166°
2026-05-06 17:41 52.77980 -5.92666 22836 ft 409 kts 166°
2026-05-06 17:41 52.75229 -5.91430 22996 ft 410 kts 166°
2026-05-06 17:41 52.72473 -5.90192 23007 ft 411 kts 166°
2026-05-06 17:42 52.69751 -5.88971 23007 ft 410 kts 166°
2026-05-06 17:42 52.66995 -5.87735 23006 ft 410 kts 166°
2026-05-06 17:42 52.64245 -5.86500 23009 ft 410 kts 166°
2026-05-06 17:42 52.61482 -5.85262 23150 ft 413 kts 166°
2026-05-06 17:43 52.58705 -5.84020 23723 ft 415 kts 166°
2026-05-06 17:43 52.55917 -5.82778 24160 ft 417 kts 166°
2026-05-06 17:43 52.53101 -5.81528 24575 ft 420 kts 166°
2026-05-06 17:43 52.50268 -5.80270 24986 ft 423 kts 166°
2026-05-06 17:44 52.48386 -5.79435 25256 ft 425 kts 166°
2026-05-06 17:44 52.45519 -5.78166 25659 ft 428 kts 166°
2026-05-06 17:44 52.42637 -5.76891 26050 ft 431 kts 165°
2026-05-06 17:44 52.39735 -5.75606 26436 ft 434 kts 165°
2026-05-06 17:45 52.36821 -5.74268 26818 ft 436 kts 164°
2026-05-06 17:45 52.33902 -5.72860 27224 ft 438 kts 163°
2026-05-06 17:45 52.30976 -5.71409 27620 ft 441 kts 163°
2026-05-06 17:45 52.28030 -5.69938 28013 ft 444 kts 163°
2026-05-06 17:46 52.25064 -5.68468 28399 ft 447 kts 164°
2026-05-06 17:46 52.22037 -5.67339 28772 ft 449 kts 169°
2026-05-06 17:46 52.18950 -5.66378 29151 ft 452 kts 169°
2026-05-06 17:46 52.15863 -5.65328 29514 ft 455 kts 165°
2026-05-06 17:47 52.12872 -5.63632 29889 ft 457 kts 156°
2026-05-06 17:47 52.10062 -5.61212 30253 ft 459 kts 147°
2026-05-06 17:47 52.07425 -5.58276 30577 ft 461 kts 144°
2026-05-06 17:47 52.04776 -5.55315 30939 ft 462 kts 147°
2026-05-06 17:48 52.01964 -5.52818 31391 ft 461 kts 154°
2026-05-06 17:48 51.99077 -5.50550 31848 ft 460 kts 154°
2026-05-06 17:48 51.96204 -5.48296 32315 ft 459 kts 154°
2026-05-06 17:48 51.93324 -5.46037 32778 ft 459 kts 154°
2026-05-06 17:49 51.90456 -5.43781 33236 ft 458 kts 154°
2026-05-06 17:49 51.87596 -5.41523 33730 ft 456 kts 154°
2026-05-06 17:49 51.84749 -5.39276 34181 ft 456 kts 154°
2026-05-06 17:49 51.81899 -5.37034 34571 ft 455 kts 154°
2026-05-06 17:50 51.79049 -5.34803 34898 ft 456 kts 154°
2026-05-06 17:50 51.76189 -5.32573 34993 ft 456 kts 155°
2026-05-06 17:50 51.70479 -5.28125 35007 ft 456 kts 154°
2026-05-06 17:51 51.64815 -5.23719 35007 ft 455 kts 155°
2026-05-06 17:51 51.59113 -5.19297 35001 ft 454 kts 155°
2026-05-06 17:52 51.53416 -5.14889 35005 ft 454 kts 155°
2026-05-06 17:52 51.48100 -5.09422 35006 ft 456 kts 139°
2026-05-06 17:53 51.43350 -5.02661 35000 ft 457 kts 140°
2026-05-06 17:53 51.38579 -4.95933 35006 ft 457 kts 140°
2026-05-06 17:54 51.33798 -4.89213 35012 ft 457 kts 140°
2026-05-06 17:54 51.29018 -4.82499 35019 ft 458 kts 140°
2026-05-06 17:55 51.24230 -4.75795 35028 ft 458 kts 140°
2026-05-06 17:55 51.19479 -4.69159 35016 ft 457 kts 140°
2026-05-06 17:56 51.14694 -4.62492 35021 ft 456 kts 140°
2026-05-06 17:56 51.09908 -4.55860 35021 ft 456 kts 140°
2026-05-06 17:57 51.05197 -4.49125 35009 ft 456 kts 134°
2026-05-06 17:57 51.01545 -4.40887 35006 ft 458 kts 121°
2026-05-06 17:58 50.98295 -4.32191 35007 ft 458 kts 121°
2026-05-06 17:58 50.95024 -4.23524 35010 ft 458 kts 122°
2026-05-06 17:59 50.91742 -4.14865 35013 ft 458 kts 122°
2026-05-06 17:59 50.88461 -4.06219 35001 ft 458 kts 122°
2026-05-06 18:00 50.85173 -3.97589 35000 ft 458 kts 122°
2026-05-06 18:00 50.82101 -3.88853 35010 ft 459 kts 112°
2026-05-06 18:01 50.80044 -3.79309 35005 ft 459 kts 108°
2026-05-06 18:01 50.78043 -3.69724 35002 ft 459 kts 109°
2026-05-06 18:02 50.76023 -3.60143 34717 ft 459 kts 109°
2026-05-06 18:02 50.75011 -3.55363 34473 ft 459 kts 109°
2026-05-06 18:02 50.73997 -3.50587 34248 ft 459 kts 109°
2026-05-06 18:03 50.72981 -3.45804 34013 ft 459 kts 109°
2026-05-06 18:03 50.71966 -3.41040 33729 ft 459 kts 109°
2026-05-06 18:03 50.70944 -3.36257 33450 ft 460 kts 109°
2026-05-06 18:03 50.69920 -3.31478 33177 ft 460 kts 109°
2026-05-06 18:04 50.68894 -3.26701 32902 ft 461 kts 109°
2026-05-06 18:04 50.67863 -3.21906 32628 ft 462 kts 109°
2026-05-06 18:04 50.66831 -3.17110 32364 ft 462 kts 109°
2026-05-06 18:04 50.65794 -3.12309 32095 ft 462 kts 109°
2026-05-06 18:05 50.64758 -3.07528 31837 ft 461 kts 109°
2026-05-06 18:05 50.63915 -3.02678 31576 ft 460 kts 101°
2026-05-06 18:05 50.63551 -2.97686 31318 ft 458 kts 91°
2026-05-06 18:05 50.63669 -2.92692 31062 ft 456 kts 83°
2026-05-06 18:06 50.64183 -2.87771 30812 ft 455 kts 79°
2026-05-06 18:06 50.64730 -2.82932 30564 ft 453 kts 79°
2026-05-06 18:06 50.65269 -2.78073 30165 ft 449 kts 79°
2026-05-06 18:06 50.65804 -2.73247 29543 ft 445 kts 79°
2026-05-06 18:07 50.66333 -2.68464 28975 ft 440 kts 79°
2026-05-06 18:07 50.66856 -2.63737 28412 ft 436 kts 79°
2026-05-06 18:07 50.67370 -2.59054 27862 ft 432 kts 79°
2026-05-06 18:07 50.67876 -2.54408 27314 ft 428 kts 81°
2026-05-06 18:08 50.68091 -2.49758 27005 ft 425 kts 90°
2026-05-06 18:08 50.67927 -2.45099 26990 ft 426 kts 94°
2026-05-06 18:08 50.67730 -2.40430 26992 ft 427 kts 94°
2026-05-06 18:08 50.67535 -2.35763 26992 ft 427 kts 94°
2026-05-06 18:09 50.67339 -2.31086 26992 ft 427 kts 94°
2026-05-06 18:09 50.67143 -2.26416 26989 ft 427 kts 94°
2026-05-06 18:09 50.66944 -2.21753 26983 ft 427 kts 94°
2026-05-06 18:09 50.66737 -2.17079 26984 ft 427 kts 94°
2026-05-06 18:10 50.66527 -2.12417 26985 ft 427 kts 94°
2026-05-06 18:10 50.66316 -2.07750 26984 ft 427 kts 94°
2026-05-06 18:10 50.66114 -2.03073 26983 ft 427 kts 92°
2026-05-06 18:10 50.66135 -1.98402 26984 ft 427 kts 89°
2026-05-06 18:11 50.66200 -1.93719 26984 ft 427 kts 89°
2026-05-06 18:11 50.66262 -1.89047 26984 ft 427 kts 89°
2026-05-06 18:11 50.66319 -1.84366 26999 ft 427 kts 89°
2026-05-06 18:11 50.66379 -1.79704 26743 ft 423 kts 87°
2026-05-06 18:12 50.66867 -1.75173 26201 ft 418 kts 71°
2026-05-06 18:12 50.68101 -1.71063 25677 ft 413 kts 55°
2026-05-06 18:12 50.69744 -1.67371 25137 ft 410 kts 53°
2026-05-06 18:12 50.71395 -1.63722 24640 ft 408 kts 53°
2026-05-06 18:13 50.73043 -1.60099 24158 ft 405 kts 53°
2026-05-06 18:13 50.74657 -1.56545 23715 ft 402 kts 53°
2026-05-06 18:13 50.76297 -1.52913 23208 ft 399 kts 53°
2026-05-06 18:13 50.77880 -1.49399 22694 ft 396 kts 53°
2026-05-06 18:14 50.79469 -1.45872 22203 ft 393 kts 53°
2026-05-06 18:14 50.81047 -1.42357 21704 ft 389 kts 53°
2026-05-06 18:14 50.82601 -1.38878 21210 ft 386 kts 53°
2026-05-06 18:14 50.84140 -1.35419 20717 ft 383 kts 53°
2026-05-06 18:15 50.85668 -1.31985 20227 ft 380 kts 53°
2026-05-06 18:15 50.87186 -1.28580 19746 ft 377 kts 53°
2026-05-06 18:15 50.88690 -1.25198 19254 ft 374 kts 53°
2026-05-06 18:15 50.90183 -1.21838 18766 ft 371 kts 53°
2026-05-06 18:16 50.91664 -1.18506 18138 ft 367 kts 53°
2026-05-06 18:16 50.93128 -1.15209 17374 ft 364 kts 53°
2026-05-06 18:16 50.94577 -1.11937 16629 ft 360 kts 53°
2026-05-06 18:16 50.96003 -1.08708 15901 ft 356 kts 53°
2026-05-06 18:17 50.97411 -1.05513 15194 ft 351 kts 53°
2026-05-06 18:17 50.98801 -1.02355 14502 ft 347 kts 53°
2026-05-06 18:17 51.00174 -0.99241 13826 ft 342 kts 52°
2026-05-06 18:17 51.01704 -0.96345 13178 ft 342 kts 46°
2026-05-06 18:18 51.03274 -0.93570 12786 ft 336 kts 46°
2026-05-06 18:18 51.04864 -0.90754 11861 ft 347 kts 46°
2026-05-06 18:18 51.06458 -0.87918 11462 ft 340 kts 46°
2026-05-06 18:18 51.08021 -0.85129 11068 ft 335 kts 46°
2026-05-06 18:19 51.09558 -0.82387 10680 ft 330 kts 46°
2026-05-06 18:19 51.11072 -0.79687 10383 ft 322 kts 46°
2026-05-06 18:19 51.12536 -0.77074 10250 ft 310 kts 46°
2026-05-06 18:19 51.13929 -0.74585 10130 ft 300 kts 46°
2026-05-06 18:20 51.15293 -0.72142 9968 ft 291 kts 46°
2026-05-06 18:20 51.16626 -0.69752 9705 ft 287 kts 46°
2026-05-06 18:20 51.17943 -0.67391 9408 ft 284 kts 46°
2026-05-06 18:20 51.19252 -0.65040 9093 ft 282 kts 46°
2026-05-06 18:21 51.20549 -0.62709 8790 ft 280 kts 46°
2026-05-06 18:21 51.21838 -0.60388 8492 ft 279 kts 46°
2026-05-06 18:21 51.23106 -0.58098 8333 ft 271 kts 46°
2026-05-06 18:21 51.24331 -0.55886 8209 ft 262 kts 46°
2026-05-06 18:22 51.25520 -0.53739 8084 ft 254 kts 46°
2026-05-06 18:22 51.26672 -0.51653 7986 ft 245 kts 46°
2026-05-06 18:22 51.27792 -0.49621 7997 ft 244 kts 46°
2026-05-06 18:22 51.28916 -0.47588 8001 ft 244 kts 46°
2026-05-06 18:23 51.30053 -0.45570 7998 ft 243 kts 41°
2026-05-06 18:23 51.31490 -0.44267 8001 ft 238 kts 11°
2026-05-06 18:23 51.33112 -0.44367 7999 ft 236 kts 340°
2026-05-06 18:23 51.34452 -0.45829 8008 ft 236 kts 309°
2026-05-06 18:24 51.35128 -0.48200 7997 ft 237 kts 285°
2026-05-06 18:24 51.35441 -0.50798 8006 ft 239 kts 281°
2026-05-06 18:24 51.35713 -0.53417 7958 ft 237 kts 281°
2026-05-06 18:24 51.35983 -0.56014 7616 ft 238 kts 281°
2026-05-06 18:25 51.36262 -0.58621 7308 ft 238 kts 281°
2026-05-06 18:25 51.36542 -0.61220 7019 ft 236 kts 281°
2026-05-06 18:25 51.36821 -0.63809 6739 ft 235 kts 281°
2026-05-06 18:25 51.37086 -0.66375 6482 ft 233 kts 281°
2026-05-06 18:26 51.37349 -0.68927 6196 ft 231 kts 281°
2026-05-06 18:26 51.37601 -0.71466 5877 ft 231 kts 281°
2026-05-06 18:26 51.37859 -0.73994 5533 ft 231 kts 281°
2026-05-06 18:26 51.38123 -0.76527 5204 ft 230 kts 281°
2026-05-06 18:27 51.38374 -0.79015 4960 ft 227 kts 281°
2026-05-06 18:27 51.38605 -0.81460 4831 ft 218 kts 281°
2026-05-06 18:27 51.38827 -0.83819 4663 ft 212 kts 281°
2026-05-06 18:27 51.39042 -0.86145 4372 ft 211 kts 281°
2026-05-06 18:28 51.39257 -0.88471 4095 ft 210 kts 281°
2026-05-06 18:28 51.39476 -0.90731 4006 ft 198 kts 287°
2026-05-06 18:28 51.40152 -0.92475 4003 ft 181 kts 327°
2026-05-06 18:28 51.41317 -0.93092 4049 ft 178 kts 355°
2026-05-06 18:29 51.42559 -0.93105 4020 ft 179 kts
2026-05-06 18:29 51.43652 -0.92199 4015 ft 183 kts 43°
2026-05-06 18:29 51.44483 -0.90628 4015 ft 185 kts 50°
2026-05-06 18:29 51.45251 -0.88982 4012 ft 184 kts 51°
2026-05-06 18:30 51.46009 -0.87325 4009 ft 185 kts 51°
2026-05-06 18:30 51.46772 -0.85667 4010 ft 185 kts 51°
2026-05-06 18:30 51.47417 -0.83883 4008 ft 188 kts 69°
2026-05-06 18:30 51.47569 -0.81788 4017 ft 191 kts 86°
2026-05-06 18:31 51.47581 -0.79657 3918 ft 190 kts 86°
2026-05-06 18:31 51.47594 -0.77544 3699 ft 189 kts 87°
2026-05-06 18:31 51.47606 -0.75462 3451 ft 180 kts 86°
2026-05-06 18:31 51.47618 -0.73519 3220 ft 171 kts 86°
2026-05-06 18:32 51.47629 -0.71645 2991 ft 166 kts 86°
2026-05-06 18:32 51.47641 -0.69803 2774 ft 164 kts 86°
2026-05-06 18:32 51.47652 -0.67998 2550 ft 164 kts 86°
2026-05-06 18:32 51.47662 -0.66179 2321 ft 162 kts 86°
2026-05-06 18:33 51.47672 -0.64374 2092 ft 162 kts 85°
2026-05-06 18:33 51.47682 -0.62569 1871 ft 162 kts 85°
2026-05-06 18:33 51.47691 -0.60761 1647 ft 162 kts 85°
2026-05-06 18:33 51.47701 -0.58952 1422 ft 160 kts 87°
2026-05-06 18:34 51.47708 -0.57274 1208 ft 144 kts 85°
2026-05-06 18:34 51.47715 -0.55707 1021 ft 137 kts 85°
2026-05-06 18:34 51.47713 -0.54190 802 ft 135 kts 86°
2026-05-06 18:34 51.47711 -0.52698 627 ft 134 kts 86°
2026-05-06 18:35 51.47737 -0.51224 425 ft 133 kts 86°
2026-05-06 18:35 51.47743 -0.49753 240 ft 131 kts 86°
2026-05-06 18:35 51.47751 -0.48297 115 ft 131 kts 86°
2026-05-06 18:35 51.47758 -0.46979 90 ft 98 kts 90°
2026-05-06 18:36 51.47759 -0.46293 90 ft 32 kts 93°
2026-05-06 18:36 51.47668 -0.46107 86 ft 19 kts 143°
2026-05-06 18:36 51.47598 -0.46126 86 ft 8 kts 261°
2026-05-06 18:36 51.47594 -0.46229 86 ft 11 kts 271°
2026-05-06 18:37 51.47595 -0.46312 86 ft 12 kts 270°
2026-05-06 18:37 51.47593 -0.46463 87 ft 15 kts 268°
2026-05-06 18:37 51.47592 -0.46560 86 ft 3 kts 271°
2026-05-06 18:37 51.47592 -0.46591 87 ft 5 kts 271°
2026-05-06 18:38 51.47594 -0.46749 86 ft 29 kts 269°
2026-05-06 18:38 51.47583 -0.47047 88 ft 27 kts 270°
2026-05-06 18:38 51.47583 -0.47357 86 ft 29 kts 270°
2026-05-06 18:38 51.47582 -0.47668 90 ft 25 kts 271°
2026-05-06 18:39 51.47580 -0.47945 90 ft 26 kts 271°
2026-05-06 18:39 51.47581 -0.48206 89 ft 19 kts 266°
2026-05-06 18:39 51.47576 -0.48434 88 ft 21 kts 251°
2026-05-06 18:40 51.47330 -0.48477 86 ft 17 kts 180°
2026-05-06 18:40 51.47217 -0.48477 86 ft 17 kts 180°
2026-05-06 18:40 51.47094 -0.48475 86 ft 18 kts 179°
2026-05-06 18:40 51.46963 -0.48472 86 ft 17 kts 179°
2026-05-06 18:41 51.46885 -0.48513 86 ft 7 kts 259°
2026-05-06 18:41 51.46877 -0.48603 86 ft 10 kts 266°
2026-05-06 18:41 51.46901 -0.48647 88 ft 5 kts 349°
2026-05-06 18:41 51.46911 -0.48647 86 ft 2 kts 358°
2026-05-06 18:42 51.46931 -0.48647 89 ft 0 kts